Location: Alto Pass Reservoir
(37.5801°N, 89.3084°W)
Time: 13:40:51
(UTC+00:00)

Cosmos 1607 - Pass Details

Date: 08 December 2021
Orbit: 921 x 981 km, 65.0° (Epoch: 19 January)

Event Time Altitude Azimuth Distance (km) Brightness Sun altitude
Exits shadow 12:05:08 - 333° (NNW) 3,268 6.3 -10.7°
Reaches altitude 10° 12:06:45 10° 335° (NNW) 2,673 5.9 -10.4°
Maximum altitude 12:12:58 67° 58° (ENE) 1,011 4.3 -9.2°
Drops below altitude 10° 12:19:02 10° 140° (SE) 2,622 7.4 -8.1°
Sets 12:21:34 0° 143° (SE) 3,556 8.1 -7.7°
